Weather History for Gage, OK

Change the Weather History Date:

Tuesday, February 12, 2013

  Actual Average Record
Temperature  
Mean Temperature 28 °F -  
Max Temperature 36 °F 54 °F 90 °F (1962)
Min Temperature 19 °F 23 °F -4 °F (1986)
Degree Days  
Heating Degree Days 38    
Moisture  
Dew Point 29 °F    
Average Humidity 90    
Maximum Humidity 100    
Minimum Humidity 54    
Precipitation  
Precipitation 0.14 in - - ()
Sea Level Pressure  
Sea Level Pressure 30.07 in    
Wind  
Wind Speed 7 mph (NNE)    
Max Wind Speed 15 mph    
Max Gust Speed -    
Visibility 4 miles    
Events Fog , Rain , Snow    
Averages and records for this station are not official NWS values.
T = Trace of Precipitation, MM = Missing Value Source: NWS Daily Summary

Daily Weather History Graph

Daily Weather History Graph

Search for Another Location

Airport:

Trip Planner

Search our weather history database for the weather conditions in past years. The results will help you decide how hot, cold, wet, or windy it might be!

Date:

Astronomy

Feb. 12, 2013 Rise Set
Actual Time 7:29 AM CST 6:17 PM CST
Civil Twilight 7:03 AM CST 6:43 PM CST
Nautical Twilight 6:33 AM CST 7:14 PM CST
Astronomical Twilight 6:03 AM CST 7:44 PM CST
Moon 8:34 AM CST (2/12) 9:12 PM CST (2/12)
Length of Visible Light 11h 40m
Length of Day
10h 47m
Waxing Crescent, 7% of the Moon is Illuminated
Feb 12
Waxing Crescent
Feb 17
First Quarter
Feb 25
Full
Mar 4
Last Quarter
Mar 11
New

Hourly Weather History & Observations

Time (CST) Temp. Windchill Dew Point Humidity Pressure Visibility Wind Dir Wind Speed Gust Speed Precip Events Conditions
12:53 AM 34.0 °F - 19.0 °F 54% 30.13 in 10.0 mi Calm Calm - N/A   Overcast
1:45 AM 35.6 °F 32.8 °F 21.2 °F 56% 30.08 in 10.0 mi NNE 3.5 mph - 0.00 in Rain Light Freezing Rain
1:53 AM 35.1 °F 32.2 °F 21.9 °F 59% 30.10 in 9.0 mi NNE 3.5 mph - 0.00 in Snow Light Snow
2:11 AM 35.6 °F 32.8 °F 23.0 °F 60% 30.07 in 10.0 mi East 3.5 mph - 0.00 in Rain Light Freezing Rain
2:39 AM 35.6 °F 31.7 °F 23.0 °F 60% 30.06 in 10.0 mi East 4.6 mph - 0.00 in   Overcast
2:53 AM 35.1 °F 29.3 °F 24.1 °F 64% 30.08 in 10.0 mi NNE 6.9 mph - 0.00 in Snow Light Snow
3:53 AM 36.0 °F 30.3 °F 30.0 °F 79% 30.08 in 10.0 mi NNE 6.9 mph - 0.00 in   Overcast
4:45 AM 33.8 °F 25.8 °F 30.2 °F 87% 30.03 in 10.0 mi NNE 10.4 mph - N/A   Overcast
4:53 AM 33.1 °F 25.5 °F 30.9 °F 92% 30.06 in 10.0 mi NE 9.2 mph - N/A   Overcast
5:03 AM 33.8 °F 27.0 °F 30.2 °F 87% 30.03 in 10.0 mi NNE 8.1 mph - N/A   Overcast
5:29 AM 32.0 °F 21.6 °F 30.2 °F 93% 30.03 in 10.0 mi NNE 15.0 mph - 0.00 in Snow Light Snow
5:53 AM 32.0 °F 22.5 °F 30.9 °F 96% 30.07 in 1.8 mi NNE 12.7 mph - 0.00 in Snow Light Snow
6:09 AM 32.0 °F 22.5 °F 30.2 °F 93% 30.05 in 0.8 mi NNE 12.7 mph - 0.00 in Snow Light Snow
6:26 AM 30.2 °F 20.8 °F 30.2 °F 100% 30.04 in 1.0 mi NE 11.5 mph - 0.00 in Snow Light Snow
6:40 AM 30.2 °F 20.8 °F 30.2 °F 100% 30.04 in 0.8 mi NE 11.5 mph - 0.01 in Snow Light Snow
6:51 AM 30.2 °F 22.6 °F 30.2 °F 100% 30.05 in 1.0 mi ENE 8.1 mph - 0.01 in Snow Light Snow
6:53 AM 30.9 °F 22.8 °F 30.9 °F 100% 30.08 in 1.0 mi ENE 9.2 mph - 0.01 in Snow Light Snow
7:15 AM 30.2 °F 21.9 °F 30.2 °F 100% 30.04 in 0.8 mi NE 9.2 mph - 0.01 in Snow Light Snow
7:30 AM 30.2 °F 20.2 °F 30.2 °F 100% 30.05 in 1.0 mi ENE 12.7 mph - 0.02 in Snow Light Snow
7:40 AM 30.2 °F 23.4 °F 28.4 °F 93% 30.06 in 1.2 mi ENE 6.9 mph - 0.02 in Snow Light Snow
7:53 AM 30.0 °F 24.1 °F 30.0 °F 100% 30.11 in 0.8 mi East 5.8 mph - 0.03 in Snow Light Snow
8:07 AM 30.2 °F 23.4 °F 30.2 °F 100% 30.06 in 0.5 mi East 6.9 mph - 0.02 in Fog , Snow Snow
8:53 AM 30.9 °F 23.5 °F 30.9 °F 100% 30.09 in 0.5 mi East 8.1 mph - 0.06 in Fog , Snow Snow
9:46 AM 32.0 °F 25.6 °F 30.2 °F 93% 30.04 in 0.5 mi East 6.9 mph - 0.01 in Fog , Snow Snow
9:53 AM 32.0 °F 24.8 °F 30.9 °F 96% 30.08 in 0.5 mi East 8.1 mph - 0.01 in Fog , Snow Snow
10:53 AM 32.0 °F 23.6 °F 30.0 °F 92% 30.09 in 0.5 mi ENE 10.4 mph - 0.02 in Fog , Snow Snow
11:53 AM 32.0 °F 24.8 °F 30.9 °F 96% 30.09 in 0.8 mi NE 8.1 mph - 0.00 in Snow Light Snow
12:24 PM 32.0 °F 23.0 °F 30.2 °F 93% 30.05 in 0.5 mi NNE 11.5 mph - 0.00 in Fog , Snow Snow
12:53 PM 32.0 °F 23.0 °F 30.0 °F 92% 30.09 in 0.5 mi NNE 11.5 mph - 0.01 in Fog , Snow Snow
1:53 PM 32.0 °F 23.6 °F 30.9 °F 96% 30.08 in 0.8 mi North 10.4 mph - 0.00 in Snow Light Snow
2:06 PM 32.0 °F 24.2 °F 30.2 °F 93% 30.04 in 0.8 mi North 9.2 mph - 0.00 in Snow Light Snow
2:53 PM 32.0 °F 24.2 °F 30.9 °F 96% 30.07 in 0.8 mi North 9.2 mph - 0.00 in Snow Light Snow
3:06 PM 32.0 °F 24.8 °F 30.2 °F 93% 30.03 in 0.8 mi North 8.1 mph - 0.00 in Snow Light Snow
3:11 PM 32.0 °F 24.8 °F 30.2 °F 93% 30.03 in 0.8 mi North 8.1 mph - 0.00 in Snow Light Snow
3:50 PM 32.0 °F 24.8 °F 30.2 °F 93% 30.03 in 1.0 mi NNW 8.1 mph - 0.00 in Snow Light Snow
3:53 PM 32.0 °F 24.2 °F 30.9 °F 96% 30.07 in 1.0 mi NNW 9.2 mph - 0.00 in Snow Light Snow
4:46 PM 33.8 °F 28.6 °F 32.0 °F 93% 30.03 in 2.5 mi NNW 5.8 mph - 0.00 in Snow Light Snow
4:49 PM 33.8 °F 28.6 °F 32.0 °F 93% 30.03 in 3.0 mi NNW 5.8 mph - 0.00 in Snow Light Snow
4:53 PM 33.1 °F 28.7 °F 30.9 °F 92% 30.07 in 3.0 mi NNW 4.6 mph - 0.00 in Snow Light Snow
5:53 PM 32.0 °F 26.4 °F 30.9 °F 96% 30.08 in 5.0 mi NW 5.8 mph - 0.00 in Snow Light Snow
6:03 PM 32.0 °F 27.5 °F 30.2 °F 93% 30.03 in 2.0 mi NW 4.6 mph - 0.00 in Snow Light Snow
6:15 PM 32.0 °F 27.5 °F 30.2 °F 93% 30.03 in 3.0 mi NW 4.6 mph - 0.00 in Snow Light Snow
6:53 PM 30.9 °F - 30.0 °F 96% 30.09 in 10.0 mi Calm Calm - 0.00 in   Overcast
7:53 PM 26.1 °F 19.4 °F 26.1 °F 100% 30.09 in 10.0 mi SW 5.8 mph - N/A   Clear
8:53 PM 25.0 °F 16.3 °F 24.1 °F 96% 30.10 in 10.0 mi WSW 8.1 mph - N/A   Clear
9:53 PM 24.1 °F 14.4 °F 23.0 °F 96% 30.10 in 8.0 mi WSW 9.2 mph - N/A   Clear
10:53 PM 19.9 °F 9.3 °F 19.0 °F 96% 30.11 in 9.0 mi WSW 9.2 mph - N/A   Clear
11:53 PM 19.9 °F 10.1 °F 19.0 °F 96% 30.11 in 8.0 mi WSW 8.1 mph - N/A   Clear